Date_and_time,latitude,longitude,wind_speed,RelWindDirFrom,WindDirFrom,air_pressure,air_temperature,relative_humidity,Temp,platform_speed_wrt_ground,air_pressure_at_mean_sea_level,platform_orientation
2018-05-14 23:50,50.6304316666667,-96.9807583333333,2.9,4.6,43,989.30,9.8,49,8.99,0.0,1016.30,345.5
2018-05-15 00:00,50.6304333333333,-96.9807616666667,3.7,5.6,43,989.27,9.8,49,9.45,0.0,1016.27,142.0
2018-05-15 00:10,50.6304266666667,-96.9807716666667,2.1,5.4,48,989.33,10.2,48,9.51,0.0,1016.30,142.0
2018-05-15 00:20,50.63043,-96.9807916666667,3.1,5.8,54,989.37,9.9,51,9.23,0.0,1016.36,142.0
2018-05-15 00:30,50.63045,-96.9807733333333,5.7,8.0,45,989.39,9.4,54,8.97,0.0,1016.40,142.0
2018-05-15 00:40,50.6304433333333,-96.9807716666667,5.7,8.6,31,989.52,8.9,59,8.90,0.0,1016.53,142.0
2018-05-15 00:50,50.6304416666667,-96.9807733333333,10.4,14.2,41,989.33,8.5,61,9.09,0.0,1016.31,142.0
2018-05-15 01:00,50.6304233333333,-96.9807716666667,11.2,14.3,43,989.37,8.1,62,9.03,0.0,1016.39,270.0
2018-05-15 01:10,50.63041,-96.9807766666667,10.9,12.4,50,989.38,7.7,65,8.87,0.0,1016.42,270.0
2018-05-15 01:20,50.6304533333333,-96.980765,9.4,11.7,50,989.51,7.7,65,8.95,0.0,1016.57,270.0
2018-05-15 01:30,50.6304316666667,-96.980765,8.1,9.3,39,989.56,7.3,68,9.00,0.0,1016.63,270.0
2018-05-15 01:40,50.6304316666667,-96.9807633333333,6.7,8.3,29,989.63,6.9,71,8.93,0.0,1016.71,270.0
2018-05-15 01:50,50.6304333333333,-96.9807633333333,5.9,7.0,26,989.76,6.8,73,8.80,0.0,1016.84,270.0
2018-05-15 02:00,50.63045,-96.9807566666667,7.5,9.5,25,989.76,7.2,71,8.78,0.0,1016.80,360.0
2018-05-15 02:10,50.6304383333333,-96.9807366666667,10.0,12.0,19,989.69,7.4,68,8.80,0.0,1016.74,360.0
2018-05-15 02:20,50.63043,-96.9807533333333,10.7,12.0,19,989.74,7.4,69,8.69,0.0,1016.82,360.0
2018-05-15 02:30,50.63043,-96.9807516666667,10.3,11.5,18,989.88,7.5,68,8.63,0.0,1016.98,360.0
2018-05-15 02:40,50.63043,-96.9807566666667,10.1,11.7,16,989.96,7.4,67,8.60,0.0,1017.08,360.0
2018-05-15 02:50,50.6304216666667,-96.9807583333333,9.5,11.0,16,990.02,7.3,68,8.57,0.0,1017.17,360.0
2018-05-15 03:00,50.6304216666667,-96.9807633333333,9.2,10.6,17,990.06,7.3,68,8.58,0.0,1017.23,194.5
2018-05-15 03:10,50.6303883333333,-96.9807766666667,9.4,12.3,18,990.09,7.4,65,8.61,0.0,1017.26,194.5
2018-05-15 03:20,50.63042,-96.980775,9.8,12.0,17,990.10,7.7,63,8.56,0.0,1017.27,194.5
2018-05-15 03:30,50.63042,-96.9807666666667,9.9,11.8,16,990.11,7.7,61,8.55,0.0,1017.30,194.5
2018-05-15 03:40,50.6304216666667,-96.9807633333333,9.4,11.2,14,990.18,7.7,60,8.51,0.0,1017.37,194.5
2018-05-15 03:50,50.6304233333333,-96.9807666666667,8.4,9.8,10,990.31,8.0,57,8.48,0.0,1017.48,194.5
2018-05-15 04:00,50.6304233333333,-96.9807666666667,8.2,9.7,11,990.35,7.9,58,8.48,0.0,1017.51,90.0
2018-05-15 04:10,50.630425,-96.9807666666667,8.3,10.0,13,990.26,7.7,59,8.55,0.0,1017.43,90.0
2018-05-15 04:20,50.6304266666667,-96.9807666666667,9.4,11.9,15,990.21,7.8,57,8.61,0.0,1017.37,90.0
2018-05-15 04:30,50.630425,-96.9807666666667,8.8,10.7,14,990.22,8.0,57,8.62,0.0,1017.37,90.0
2018-05-15 04:40,50.6304366666667,-96.9807333333333,8.5,10.5,10,990.28,8.2,57,8.57,0.0,1017.43,90.0
2018-05-15 04:50,50.63045,-96.980745,9.4,11.2,5,990.25,8.6,52,8.53,0.0,1017.38,90.0
2018-05-15 05:00,50.63044,-96.9807566666667,9.6,11.1,8,990.17,8.9,48,8.50,0.0,1017.28,360.0
2018-05-15 05:10,50.6304383333333,-96.9807566666667,9.0,11.3,7,990.16,9.1,47,8.48,0.0,1017.25,360.0
2018-05-15 05:20,50.6304366666667,-96.98076,7.0,8.4,360,990.27,9.2,43,8.48,0.0,1017.35,360.0
2018-05-15 05:30,50.6304366666667,-96.980755,6.1,7.8,357,990.38,9.3,42,8.50,0.0,1017.46,360.0
2018-05-15 05:40,50.630435,-96.9807566666667,5.8,7.2,359,990.36,9.2,42,8.51,0.0,1017.44,360.0
2018-05-15 05:50,50.630435,-96.9807583333333,3.8,5.4,346,990.35,9.1,39,8.50,0.0,1017.43,360.0
2018-05-15 06:00,50.6304333333333,-96.9807583333333,2.4,3.6,317,990.44,9.0,33,8.51,0.0,1017.54,14.5
2018-05-15 06:10,50.6304016666667,-96.9807716666667,2.9,4.0,249,990.44,8.3,33,8.52,0.0,1017.56,14.5
2018-05-15 06:20,50.6304366666667,-96.9807716666667,2.3,3.3,243,990.42,7.6,34,8.55,0.0,1017.57,14.5
2018-05-15 06:30,50.6304333333333,-96.9807716666667,2.7,4.2,259,990.49,7.2,37,8.58,0.0,1017.65,14.5
2018-05-15 06:40,50.6304216666667,-96.9807733333333,2.9,3.8,273,990.45,7.1,37,8.69,0.0,1017.59,14.5
2018-05-15 06:50,50.6304216666667,-96.9807633333333,2.4,3.6,239,990.51,6.7,40,8.82,0.0,1017.66,14.5
2018-05-15 07:00,50.6304233333333,-96.9807616666667,3.0,3.7,237,990.36,6.2,38,8.92,0.0,1017.53,90.0
2018-05-15 07:10,50.630425,-96.9807616666667,2.6,3.7,247,990.22,6.1,40,9.01,0.0,1017.38,90.0
2018-05-15 07:20,50.6304616666667,-96.9807883333333,2.4,3.7,265,990.18,6.3,40,9.04,0.0,1017.33,90.0
2018-05-15 07:30,50.63043,-96.9807516666667,2.8,4.1,259,990.13,6.3,40,9.03,0.0,1017.28,90.0
2018-05-15 07:40,50.63043,-96.9807983333333,1.8,3.2,258,990.19,6.1,44,9.00,0.0,1017.36,90.0
2018-05-15 07:50,50.6304133333333,-96.9807633333333,2.3,3.5,257,990.09,5.9,42,8.95,0.0,1017.26,90.0
2018-05-15 08:00,50.6304183333333,-96.9807633333333,1.6,3.0,246,990.05,5.7,46,8.87,0.0,1017.26,360.0
2018-05-15 08:10,50.6304433333333,-96.980755,2.7,3.9,254,990.03,5.5,43,8.81,0.0,1017.29,360.0
2018-05-15 08:20,50.6304166666667,-96.9807466666667,2.1,3.0,298,990.00,6.0,40,8.76,0.0,1017.26,360.0
2018-05-15 08:30,50.6304216666667,-96.9807516666667,1.3,2.1,328,989.91,6.5,44,8.73,0.0,1017.14,360.0
2018-05-15 08:40,50.630425,-96.9807566666667,1.2,1.7,354,989.84,6.2,47,8.72,0.0,1017.11,360.0
2018-05-15 08:50,50.6304283333333,-96.9807533333333,1.9,2.9,25,989.75,5.9,60,8.71,0.0,1017.05,360.0
2018-05-15 09:00,50.6304416666667,-96.9807533333333,0.7,2.6,24,989.85,5.9,67,8.70,0.0,1017.16,41.3
2018-05-15 09:10,50.6304333333333,-96.9807533333333,1.5,1.9,215,990.05,5.0,56,8.71,0.0,1017.40,41.3
2018-05-15 09:20,50.6304333333333,-96.9807566666667,1.3,2.3,222,990.02,4.5,51,8.72,0.0,1017.39,41.3
2018-05-15 09:30,50.6304333333333,-96.9807583333333,1.3,1.9,240,990.13,4.1,53,8.74,0.0,1017.54,41.3
2018-05-15 09:40,50.6304366666667,-96.9807566666667,3.3,4.5,219,990.03,3.1,57,8.74,0.0,1017.50,41.3
2018-05-15 09:50,50.630435,-96.9807583333333,2.6,3.7,220,990.03,2.6,56,8.76,0.0,1017.53,41.3
2018-05-15 10:00,50.630435,-96.9807583333333,1.9,2.6,214,989.87,2.8,55,8.76,0.0,1017.37,38.0
2018-05-15 10:10,50.6304216666667,-96.9807616666667,1.1,2.1,243,989.80,3.3,52,8.76,0.0,1017.24,38.0
2018-05-15 10:20,50.63043,-96.9807416666667,0.6,1.5,298,989.79,4.0,54,8.76,0.0,1017.18,38.0
2018-05-15 10:30,50.63043,-96.9807516666667,0.5,1.4,258,989.67,4.0,51,8.76,0.0,1017.07,38.0
2018-05-15 10:40,50.6304333333333,-96.98075,1.1,2.8,220,989.62,4.2,53,8.76,0.0,1017.02,38.0
2018-05-15 10:50,50.6304366666667,-96.9807533333333,1.7,2.4,214,989.50,3.6,57,8.76,0.0,1016.92,38.0
2018-05-15 11:00,50.6304366666667,-96.980755,0.9,1.7,221,989.57,3.4,58,8.76,0.0,1017.06,360.0
2018-05-15 11:10,50.6304366666667,-96.9807566666667,0.7,2.1,106,989.58,4.0,58,8.74,0.0,1017.06,360.0
2018-05-15 11:20,50.6304366666667,-96.9807583333333,1.8,3.2,134,989.44,4.6,65,8.73,0.0,1016.91,360.0
2018-05-15 11:30,50.6304366666667,-96.9807583333333,2.2,3.0,153,989.45,5.0,62,8.73,0.0,1016.95,360.0
2018-05-15 11:40,50.630435,-96.9807583333333,1.6,2.9,111,989.59,5.5,68,8.72,0.0,1017.08,360.0
2018-05-15 11:50,50.6304333333333,-96.9807583333333,1.7,3.2,117,989.61,5.6,75,8.72,0.0,1017.09,360.0
2018-05-15 12:00,50.6304333333333,-96.9807583333333,3.7,6.1,129,989.48,5.4,89,8.70,0.0,1016.95,221.3
2018-05-15 12:10,50.6304316666667,-96.9807583333333,3.2,6.1,156,989.40,5.1,83,8.70,0.0,1016.85,221.3
2018-05-15 12:20,50.6304416666667,-96.980745,4.7,6.6,136,989.39,5.9,68,8.70,0.0,1016.79,221.3
2018-05-15 12:30,50.6304383333333,-96.980765,3.6,5.9,133,989.23,6.1,70,8.66,0.0,1016.62,221.3
2018-05-15 12:40,50.630435,-96.980765,7.9,12.8,152,988.96,5.8,64,8.61,0.0,1016.38,221.3
2018-05-15 12:50,50.63045,-96.9807883333333,7.6,12.1,147,988.91,6.5,70,8.60,0.0,1016.30,221.3
2018-05-15 13:00,50.6304316666667,-96.9807766666667,6.5,9.4,169,989.09,6.4,79,8.60,0.0,1016.46,240.8
2018-05-15 13:10,50.630435,-96.98077,6.6,7.9,186,989.24,6.4,85,8.59,0.0,1016.59,240.8
2018-05-15 13:20,50.630435,-96.9807683333333,6.7,8.5,175,989.08,6.4,86,8.59,0.0,1016.40,240.8
2018-05-15 13:30,50.6304483333333,-96.980755,4.1,6.5,202,989.43,6.7,87,8.59,0.0,1016.72,240.8
2018-05-15 13:40,50.6304316666667,-96.9807766666667,3.5,5.6,178,989.25,7.0,81,8.58,0.0,1016.52,240.8
2018-05-15 13:50,50.6304316666667,-96.9807683333333,8.0,10.3,143,988.12,7.3,85,8.58,0.0,1015.36,240.8
2018-05-15 14:00,50.6304366666667,-96.98078,9.4,12.7,141,987.68,7.3,92,8.57,0.0,1014.91,270.0
2018-05-15 14:10,50.6304366666667,-96.9807716666667,8.8,11.8,133,987.55,7.2,94,8.57,0.0,1014.74,270.0
2018-05-15 14:20,50.630435,-96.98077,11.4,14.1,150,987.26,7.2,79,8.57,0.0,1014.44,270.0
2018-05-15 14:30,50.6304366666667,-96.9807683333333,13.2,16.3,148,986.93,7.6,73,8.55,0.0,1014.09,270.0
2018-05-15 14:40,50.630435,-96.9807666666667,14.3,17.1,150,986.82,7.6,72,8.55,0.0,1013.94,270.0
2018-05-15 14:50,50.6304166666667,-96.98076,14.4,18.9,146,986.40,7.6,70,8.53,0.0,1013.51,270.0
2018-05-15 15:00,50.630445,-96.98077,15.0,20.1,142,985.69,7.9,67,8.50,0.0,1012.77,318.7
2018-05-15 15:10,50.630445,-96.9807583333333,16.9,21.3,143,985.19,8.2,66,8.47,0.0,1012.26,318.7
2018-05-15 15:20,50.6304466666667,-96.98076,16.9,19.2,148,985.09,8.1,69,8.46,0.0,1012.13,318.7
2018-05-15 15:30,50.630445,-96.9807583333333,17.4,21.1,150,984.60,8.5,67,8.45,0.0,1011.59,318.7
2018-05-15 15:40,50.6304433333333,-96.9807566666667,17.1,21.2,154,984.22,9.4,59,8.44,0.0,1011.15,318.7
2018-05-15 15:50,50.6304266666667,-96.9807483333333,16.1,20.9,159,984.16,10.2,55,8.42,0.0,1011.05,318.7
2018-05-15 16:00,50.6304333333333,-96.980755,17.1,26.7,173,983.80,12.8,37,8.41,0.0,1010.55,90.0
2018-05-15 16:10,50.6304366666667,-96.9807566666667,17.9,26.9,185,983.39,14.9,31,8.41,0.0,1010.04,90.0
2018-05-15 16:20,50.6304383333333,-96.9807616666667,16.6,23.7,195,983.78,15.2,30,8.42,0.0,1010.40,90.0
2018-05-15 16:30,50.63044,-96.98076,18.3,26.0,187,983.01,15.3,30,8.43,0.0,1009.60,90.0
2018-05-15 16:40,50.63044,-96.98076,18.9,28.0,189,982.58,15.8,29,8.43,0.0,1009.13,90.0
2018-05-15 16:50,50.6304416666667,-96.98076,21.1,29.2,193,982.10,16.3,28,8.42,0.0,1008.61,90.0
2018-05-15 17:00,50.6304416666667,-96.98076,23.2,29.2,190,981.57,16.2,29,8.44,0.0,1008.05,73.2
2018-05-15 17:10,50.6304416666667,-96.98076,20.8,30.0,188,981.22,16.5,28,8.46,0.0,1007.69,73.2
2018-05-15 17:20,50.6304416666667,-96.9807583333333,20.4,30.8,194,980.93,17.1,28,8.48,0.0,1007.35,73.2
2018-05-15 17:30,50.6304416666667,-96.9807583333333,21.6,31.3,192,980.49,18.4,25,8.50,0.0,1006.79,73.2
2018-05-15 17:40,50.6304416666667,-96.9807583333333,25.5,36.8,202,980.39,19.9,22,8.53,0.0,1006.58,73.2
2018-05-15 17:50,50.6304433333333,-96.9807566666667,24.6,34.8,203,980.14,20.8,21,8.60,0.0,1006.16,73.2
2018-05-15 18:00,50.6304416666667,-96.98073,24.2,35.9,206,980.01,21.8,20,8.68,0.0,1005.89,90.0
2018-05-15 18:10,50.6304433333333,-96.9807366666667,19.9,28.9,209,979.89,22.7,19,8.76,0.0,1005.71,90.0
2018-05-15 18:20,50.630445,-96.98074,22.8,33.4,219,979.84,23.7,19,8.87,0.0,1005.62,90.0
2018-05-15 18:30,50.6304366666667,-96.9807983333333,21.7,31.8,221,979.77,24.3,19,8.96,0.0,1005.49,90.0
2018-05-15 18:40,50.6304466666667,-96.9807666666667,23.0,35.2,230,979.64,24.8,19,9.01,0.0,1005.32,90.0
2018-05-15 18:50,50.630445,-96.98076,20.9,32.9,225,979.36,25.2,19,9.03,0.0,1005.02,90.0
2018-05-15 19:00,50.630445,-96.9807583333333,22.6,32.9,230,979.19,25.6,19,9.09,0.0,1004.81,38.0
2018-05-15 19:10,50.630445,-96.9807566666667,25.7,36.4,242,979.18,25.9,20,9.13,0.0,1004.76,38.0
2018-05-15 19:20,50.63044,-96.9807483333333,21.8,33.7,245,979.07,26.0,20,9.16,0.0,1004.58,38.0
2018-05-15 19:30,50.6304366666667,-96.98075,21.9,34.1,243,979.03,25.8,20,9.21,0.0,1004.49,38.0
2018-05-15 19:40,50.6304333333333,-96.9807483333333,20.2,30.5,242,978.95,26.3,20,9.25,0.0,1004.35,38.0
2018-05-15 19:50,50.630435,-96.9807483333333,19.6,29.1,246,978.75,26.5,19,9.28,0.0,1004.09,38.0
2018-05-15 20:00,50.6304333333333,-96.98075,18.5,30.1,242,978.50,26.7,20,9.31,0.0,1003.78,138.7
2018-05-15 20:10,50.630435,-96.9807533333333,17.6,24.3,257,978.26,27.1,19,9.37,0.0,1003.47,138.7
2018-05-15 20:20,50.6304366666667,-96.9807533333333,17.9,28.3,247,978.19,27.5,19,9.42,0.0,1003.36,138.7
2018-05-15 20:30,50.6304366666667,-96.980755,18.5,30.8,242,977.95,27.6,19,9.45,0.0,1003.09,138.7
2018-05-15 20:40,50.6304383333333,-96.9807566666667,18.0,27.3,244,977.76,27.8,18,9.48,0.0,1002.87,138.7
2018-05-15 20:50,50.6304383333333,-96.9807566666667,14.8,24.9,249,977.64,27.8,19,9.53,0.0,1002.73,138.7
2018-05-15 21:00,50.6304383333333,-96.980755,16.7,23.6,237,977.60,27.9,19,9.57,0.0,1002.67,270.0
2018-05-15 21:10,50.6304383333333,-96.980755,17.3,24.8,237,977.41,28.1,19,9.59,0.0,1002.46,270.0
2018-05-15 21:20,50.6304383333333,-96.980755,16.6,25.8,237,977.13,28.3,18,9.62,0.0,1002.18,270.0
2018-05-15 21:30,50.630455,-96.9807533333333,16.5,25.2,233,976.92,28.9,18,9.64,0.0,1001.92,270.0
2018-05-15 21:40,50.6304366666667,-96.9807533333333,13.0,20.4,243,976.77,29.0,18,9.69,0.0,1001.75,270.0
2018-05-15 21:50,50.6304366666667,-96.98075,12.2,22.4,256,976.56,29.3,17,9.71,0.0,1001.51,270.0
2018-05-15 22:00,50.6304366666667,-96.9807466666667,14.4,23.3,249,976.47,29.0,17,9.74,0.0,1001.42,119.2
2018-05-15 22:10,50.630435,-96.980745,9.6,15.9,259,976.29,28.8,18,9.77,0.0,1001.23,119.2
2018-05-15 22:20,50.6304333333333,-96.9807466666667,9.8,15.2,257,976.28,28.6,18,9.79,0.0,1001.22,119.2
2018-05-15 22:30,50.6304333333333,-96.98075,9.8,16.3,268,976.44,28.6,18,9.80,0.0,1001.38,119.2
2018-05-15 22:40,50.6304333333333,-96.98075,15.1,28.6,303,976.58,28.2,19,9.81,0.0,1001.54,119.2
2018-05-15 22:50,50.6304333333333,-96.98075,11.2,20.3,314,977.11,26.7,25,9.81,0.0,1002.14,119.2
2018-05-15 23:00,50.630435,-96.9807516666667,5.6,10.7,301,977.52,25.7,27,9.83,0.0,1002.60,38.0
2018-05-15 23:10,50.63048,-96.9808133333333,8.6,16.3,251,977.48,26.6,21,9.86,0.0,1002.50,38.0
2018-05-15 23:20,50.6304516666667,-96.98077,12.3,17.9,249,977.38,27.4,20,9.90,0.0,1002.34,38.0
2018-05-15 23:30,50.630435,-96.9807566666667,10.1,15.7,247,977.31,27.4,20,9.90,0.0,1002.27,38.0
2018-05-15 23:40,50.6304366666667,-96.980755,9.4,16.0,244,977.39,27.2,21,9.91,0.0,1002.34,38.0
2018-05-15 23:50,50.6304383333333,-96.980755,9.3,14.9,238,977.49,26.7,22,9.92,0.0,1002.48,38.0
